Current weather by "City, St" or "zip code"  
 

Current Conditions: Orangeburg, Orangeburg Municipal Airport, SC

Fog/Mist


57.0 F

Last Updated on Jan 31 2023, 8:53 pm EST
Humidity: 100%
Wind Speed: S 6.9 mph
Barometer 30.14 in
Dewpoint: 57.0 F
Visibility: 1.00 mi
Precip: --
Heat Index: NA
Wind Chill: 56 F
Current conditions at:

Orangeburg, Orangeburg Municipal Airport, SC (KOGB)

Lat: 33.46389 Lon: 80.85361

Local Radar Image active severe weather and emergency alerts image image weather storm and storm spotter reports image weather observation monitoring service image
Local
Radar
Active
Alerts
Storm Reports Obs
Monitoring

Sign-up For Email & Text Message Weather Alert Notification Services



Advertise Here

Observation History for Orangeburg, Orangeburg Municipal Airport, SC


Time Wind
(mph)
Vis
(mi)
Weather Precip (in) Temperature (F) Relative
Humidity
Wind
Chill
(F)
Heat
Index
(F)
Pressure
Air Dwpt altimeter
(in)
sea level
(mb)
Rmks
8:53 pm EST S 6.9 1.00 Fog/Mist -- 57.0 57.0 100% 56 NA 30.14 1020.5
7:53 pm EST S 6.9 10.00 Fair -- 62.0 60.1 93% 62 NA 30.14 1020.4
6:53 pm EST S 5.8 10.00 Mostly Cloudy -- 62.0 61.0 96% 62 NA 30.13 1020.3
5:53 pm EST SE 3.5 10.00 Overcast -- 64.0 61.0 90% NA NA 30.12 1020.0
3:53 pm EST SW 5.8 10.00 Overcast -- 65.0 60.1 84% NA NA 30.11 1019.5
11:53 am EST SW 6.9 10.00 Overcast -- 60.0 57.9 93% 59 NA 30.20 1022.5
10:53 am EST S 6.9 10.00 Overcast Trace 58.0 57.0 97% 57 NA 30.21 1022.8
9:53 am EST S 5.8 8.00 Light Rain Trace 56.0 55.9 100% 55 NA 30.21 1022.7
4:53 am EST N 0.0 0.25 Fog -- 55.0 55.0 100% NA NA 30.17 1021.4
3:53 am EST N 0.0 0.25 Fog -- 56.0 55.0 97% NA NA 30.17 1021.5
2:53 am EST N 0.0 0.75 Fog/Mist -- 56.0 55.9 100% NA NA 30.15 1020.8
12:53 am EST N 0.0 2.50 Fog/Mist -- 56.0 55.9 100% NA NA 30.19 1022.2
11:53 pm EST S 3.5 4.00 Fog/Mist -- 56.0 55.9 100% NA NA 30.19 1022.2
10:53 pm EST N 0.0 3.00 Fog/Mist -- 56.0 55.9 100% NA NA 30.20 1022.5
8:53 pm EST S 3.5 0.75 Fog/Mist -- 56.0 55.9 100% NA NA 30.19 1022.4

Regional Weather Observation


Columbia, Columbia Metropolitan Airport, SC (KCAE)

Partly Cloudy
61.0 F

McEntire Air National Guard Weather Facility Base, SC (KMMT)

Partly Cloudy
60.0 F

Orangeburg, Orangeburg Municipal Airport, SC (KOGB)

Fog/Mist
57.0 F

Barnwell Regional Airport, SC (KBNL)

Fog/Mist
61.0 F

Aiken Municipal Airport, SC (KAIK)

Overcast
62.0 F

Shaw Air Force Base, SC (KSSC)

Fair
60.0 F

Advertise Here


Advertise Here